Year,Month,Day,Hour,Minute,Value (Times are PST for temperature in C)
2016,02,24,00,00,8.10
2016,02,24,00,01,8.10
2016,02,24,00,02,8.10
2016,02,24,00,03,8.10
2016,02,24,00,04,8.10
2016,02,24,00,05,8.10
2016,02,24,00,06,8.10
2016,02,24,00,07,8.10
2016,02,24,00,08,8.10
2016,02,24,00,09,8.10
2016,02,24,00,10,8.10
2016,02,24,00,11,8.00
2016,02,24,00,12,8.00
2016,02,24,00,13,8.00
2016,02,24,00,14,8.10
2016,02,24,00,15,8.00
2016,02,24,00,16,8.00
2016,02,24,00,17,8.00
2016,02,24,00,18,8.00
2016,02,24,00,19,8.00
2016,02,24,00,20,8.00
2016,02,24,00,21,8.00
2016,02,24,00,22,8.00
2016,02,24,00,23,8.00
2016,02,24,00,24,8.00
2016,02,24,00,25,8.00
2016,02,24,00,26,8.00
2016,02,24,00,27,8.00
2016,02,24,00,28,7.90
2016,02,24,00,29,7.90
2016,02,24,00,30,7.90
2016,02,24,00,31,7.90
2016,02,24,00,32,7.90
2016,02,24,00,33,7.90
2016,02,24,00,34,7.90
2016,02,24,00,35,7.90
2016,02,24,00,36,7.90
2016,02,24,00,37,7.90
2016,02,24,00,38,7.90
2016,02,24,00,39,7.80
2016,02,24,00,40,7.80
2016,02,24,00,41,7.80
2016,02,24,00,42,7.80
2016,02,24,00,43,7.80
2016,02,24,00,44,7.80
2016,02,24,00,45,7.80
2016,02,24,00,46,7.80
2016,02,24,00,47,7.80
2016,02,24,00,48,7.70
2016,02,24,00,49,7.70
2016,02,24,00,50,7.70
2016,02,24,00,51,7.70
2016,02,24,00,52,7.70
2016,02,24,00,53,7.70
2016,02,24,00,54,7.70
2016,02,24,00,55,7.70
2016,02,24,00,56,7.70
2016,02,24,00,57,7.70
2016,02,24,00,58,7.70
2016,02,24,00,59,7.70
2016,02,24,01,00,7.70
2016,02,24,01,01,7.70
2016,02,24,01,02,7.70
2016,02,24,01,03,7.60
2016,02,24,01,04,7.60
2016,02,24,01,05,7.60
2016,02,24,01,06,7.60
2016,02,24,01,07,7.60
2016,02,24,01,08,7.60
2016,02,24,01,09,7.60
2016,02,24,01,10,7.60
2016,02,24,01,11,7.60
2016,02,24,01,12,7.50
2016,02,24,01,13,7.50
2016,02,24,01,14,7.50
2016,02,24,01,15,7.50
2016,02,24,01,16,7.50
2016,02,24,01,17,7.50
2016,02,24,01,18,7.50
2016,02,24,01,19,7.50
2016,02,24,01,20,7.50
2016,02,24,01,21,7.50
2016,02,24,01,22,7.50
2016,02,24,01,23,7.50
2016,02,24,01,24,7.50
2016,02,24,01,25,7.50
2016,02,24,01,26,7.50
2016,02,24,01,27,7.50
2016,02,24,01,28,7.50
2016,02,24,01,29,7.50
2016,02,24,01,30,7.50
2016,02,24,01,31,7.50
2016,02,24,01,32,7.50
2016,02,24,01,33,7.50
2016,02,24,01,34,7.50
2016,02,24,01,35,7.50
2016,02,24,01,36,7.50
2016,02,24,01,37,7.50
2016,02,24,01,38,7.60
2016,02,24,01,39,7.60
2016,02,24,01,40,7.50
2016,02,24,01,41,7.60
2016,02,24,01,42,7.60
2016,02,24,01,43,7.60
2016,02,24,01,44,7.60
2016,02,24,01,45,7.60
2016,02,24,01,46,7.60
2016,02,24,01,47,7.60
2016,02,24,01,48,7.60
2016,02,24,01,49,7.60
2016,02,24,01,50,7.60
2016,02,24,01,51,7.60
2016,02,24,01,52,7.60
2016,02,24,01,53,7.50
2016,02,24,01,54,7.50
2016,02,24,01,55,7.60
2016,02,24,01,56,7.50
2016,02,24,01,57,7.60
2016,02,24,01,58,7.60
2016,02,24,01,59,7.50
2016,02,24,02,00,7.50
2016,02,24,02,01,7.50
2016,02,24,02,02,7.50
2016,02,24,02,03,7.50
2016,02,24,02,04,7.50
2016,02,24,02,05,7.50
2016,02,24,02,06,7.50
2016,02,24,02,07,7.40
2016,02,24,02,08,7.40
2016,02,24,02,09,7.40
2016,02,24,02,10,7.40
2016,02,24,02,11,7.40
2016,02,24,02,12,7.40
2016,02,24,02,13,7.40
2016,02,24,02,14,7.40
2016,02,24,02,15,7.40
2016,02,24,02,16,7.40
2016,02,24,02,17,7.40
2016,02,24,02,18,7.40
2016,02,24,02,19,7.40
2016,02,24,02,20,7.40
2016,02,24,02,21,7.40
2016,02,24,02,22,7.40
2016,02,24,02,23,7.40
2016,02,24,02,24,7.40
2016,02,24,02,25,7.40
2016,02,24,02,26,7.40
2016,02,24,02,27,7.40
2016,02,24,02,28,7.40
2016,02,24,02,29,7.40
2016,02,24,02,30,7.40
2016,02,24,02,31,7.40
2016,02,24,02,32,7.40
2016,02,24,02,33,7.40
2016,02,24,02,34,7.40
2016,02,24,02,35,7.40
2016,02,24,02,36,7.40
2016,02,24,02,37,7.40
2016,02,24,02,38,7.40
2016,02,24,02,39,7.40
2016,02,24,02,40,7.40
2016,02,24,02,41,7.40
2016,02,24,02,42,7.40
2016,02,24,02,43,7.40
2016,02,24,02,44,7.50
2016,02,24,02,45,7.50
2016,02,24,02,46,7.50
2016,02,24,02,47,7.50
2016,02,24,02,48,7.50
2016,02,24,02,49,7.50
2016,02,24,02,50,7.60
2016,02,24,02,51,7.60
2016,02,24,02,52,7.60
2016,02,24,02,53,7.60
2016,02,24,02,54,7.60
2016,02,24,02,55,7.60
2016,02,24,02,56,7.60
2016,02,24,02,57,7.60
2016,02,24,02,58,7.60
2016,02,24,02,59,7.60
2016,02,24,03,00,7.70
2016,02,24,03,01,7.70
2016,02,24,03,02,7.70
2016,02,24,03,03,7.70
2016,02,24,03,04,7.70
2016,02,24,03,05,7.70
2016,02,24,03,06,7.70
2016,02,24,03,07,7.70
2016,02,24,03,08,7.70
2016,02,24,03,09,7.70
2016,02,24,03,10,7.70
2016,02,24,03,11,7.70
2016,02,24,03,12,7.70
2016,02,24,03,13,7.70
2016,02,24,03,14,7.70
2016,02,24,03,15,7.70
2016,02,24,03,16,7.70
2016,02,24,03,17,7.70
2016,02,24,03,18,7.70
2016,02,24,03,19,7.70
2016,02,24,03,20,7.70
2016,02,24,03,21,7.70
2016,02,24,03,22,7.70
2016,02,24,03,23,7.70
2016,02,24,03,24,7.70
2016,02,24,03,25,7.70
2016,02,24,03,26,7.70
2016,02,24,03,27,7.70
2016,02,24,03,28,7.70
2016,02,24,03,29,7.70
2016,02,24,03,30,7.70
2016,02,24,03,31,7.70
2016,02,24,03,32,7.70
2016,02,24,03,33,7.70
2016,02,24,03,34,7.70
2016,02,24,03,35,7.70
2016,02,24,03,36,7.70
2016,02,24,03,37,7.70
2016,02,24,03,38,7.60
2016,02,24,03,39,7.60
2016,02,24,03,40,7.60
2016,02,24,03,41,7.60
2016,02,24,03,42,7.60
2016,02,24,03,43,7.60
2016,02,24,03,44,7.60
2016,02,24,03,45,7.60
2016,02,24,03,46,7.60
2016,02,24,03,47,7.60
2016,02,24,03,48,7.60
2016,02,24,03,49,7.60
2016,02,24,03,50,7.60
2016,02,24,03,51,7.60
2016,02,24,03,52,7.60
2016,02,24,03,53,7.60
2016,02,24,03,54,7.60
2016,02,24,03,55,7.60
2016,02,24,03,56,7.60
2016,02,24,03,57,7.60
2016,02,24,03,58,7.60
2016,02,24,03,59,7.60
2016,02,24,04,00,7.60
2016,02,24,04,01,7.70
2016,02,24,04,02,7.70
2016,02,24,04,03,7.70
2016,02,24,04,04,7.70
2016,02,24,04,05,7.70
2016,02,24,04,06,7.60
2016,02,24,04,07,7.70
2016,02,24,04,08,7.70
2016,02,24,04,09,7.70
2016,02,24,04,10,7.70
2016,02,24,04,11,7.70
2016,02,24,04,12,7.70
2016,02,24,04,13,7.70
2016,02,24,04,14,7.70
2016,02,24,04,15,7.70
2016,02,24,04,16,7.70
2016,02,24,04,17,7.70
2016,02,24,04,18,7.70
2016,02,24,04,19,7.70
2016,02,24,04,20,7.70
2016,02,24,04,21,7.70
2016,02,24,04,22,7.70
2016,02,24,04,23,7.70
2016,02,24,04,24,7.70
2016,02,24,04,25,7.70
2016,02,24,04,26,7.70
2016,02,24,04,27,7.70
2016,02,24,04,28,7.70
2016,02,24,04,29,7.70
2016,02,24,04,30,7.70
2016,02,24,04,31,7.70
2016,02,24,04,32,7.70
2016,02,24,04,33,7.70
2016,02,24,04,34,7.70
2016,02,24,04,35,7.70
2016,02,24,04,36,7.70
2016,02,24,04,37,7.70
2016,02,24,04,38,7.70
2016,02,24,04,39,7.70
2016,02,24,04,40,7.70
2016,02,24,04,41,7.70
2016,02,24,04,42,7.70
2016,02,24,04,43,7.70
2016,02,24,04,44,7.70
2016,02,24,04,45,7.70
2016,02,24,04,46,7.70
2016,02,24,04,47,7.70
2016,02,24,04,48,7.70
2016,02,24,04,49,7.70
2016,02,24,04,50,7.70
2016,02,24,04,51,7.70
2016,02,24,04,52,7.70
2016,02,24,04,53,7.70
2016,02,24,04,54,7.70
2016,02,24,04,55,7.70
2016,02,24,04,56,7.70
2016,02,24,04,57,7.70
2016,02,24,04,58,7.70
2016,02,24,04,59,7.70
2016,02,24,05,00,7.70
2016,02,24,05,01,7.70
2016,02,24,05,02,7.70
2016,02,24,05,03,7.70
2016,02,24,05,04,7.70
2016,02,24,05,05,7.70
2016,02,24,05,06,7.70
2016,02,24,05,07,7.70
2016,02,24,05,08,7.70
2016,02,24,05,09,7.70
2016,02,24,05,10,7.70
2016,02,24,05,11,7.70
2016,02,24,05,12,7.70
2016,02,24,05,13,7.70
2016,02,24,05,14,7.70
2016,02,24,05,15,7.70
2016,02,24,05,16,7.70
2016,02,24,05,17,7.70
2016,02,24,05,18,7.70
2016,02,24,05,19,7.70
2016,02,24,05,20,7.70
2016,02,24,05,21,7.70
2016,02,24,05,22,7.70
2016,02,24,05,23,7.70
2016,02,24,05,24,7.70
2016,02,24,05,25,7.70
2016,02,24,05,26,7.70
2016,02,24,05,27,7.70
2016,02,24,05,28,7.80
2016,02,24,05,29,7.80
2016,02,24,05,30,7.80
2016,02,24,05,31,7.80
2016,02,24,05,32,7.80
2016,02,24,05,33,7.80
2016,02,24,05,34,7.70
2016,02,24,05,35,7.70
2016,02,24,05,36,7.70
2016,02,24,05,37,7.70
2016,02,24,05,38,7.70
2016,02,24,05,39,7.70
2016,02,24,05,40,7.70
2016,02,24,05,41,7.70
2016,02,24,05,42,7.70
2016,02,24,05,43,7.70
2016,02,24,05,44,7.70
2016,02,24,08,33,8.10
2016,02,24,08,34,8.10
2016,02,24,08,35,8.10
2016,02,24,08,36,8.10
2016,02,24,08,37,8.10
2016,02,24,08,38,8.10
2016,02,24,08,39,8.10
2016,02,24,08,40,8.10
2016,02,24,08,41,8.10
2016,02,24,08,42,8.10
2016,02,24,08,43,8.10
2016,02,24,08,44,8.20
2016,02,24,08,45,8.20
2016,02,24,08,46,8.20
2016,02,24,08,47,8.20
2016,02,24,08,48,8.20
2016,02,24,08,49,8.20
2016,02,24,08,50,8.20
2016,02,24,08,51,8.20
2016,02,24,08,52,8.20
2016,02,24,08,53,8.20
2016,02,24,08,54,8.20
2016,02,24,08,55,8.20
2016,02,24,08,56,8.20
2016,02,24,08,57,8.20
2016,02,24,08,58,8.10
2016,02,24,08,59,8.10
2016,02,24,09,00,8.10
2016,02,24,09,01,8.10
2016,02,24,09,02,8.10
2016,02,24,09,03,8.20
2016,02,24,09,04,8.10
2016,02,24,09,05,8.10
2016,02,24,09,06,8.20
2016,02,24,09,07,8.10
2016,02,24,09,08,8.10
2016,02,24,09,09,8.10
2016,02,24,09,10,8.20
2016,02,24,09,11,8.10
2016,02,24,09,12,8.20
2016,02,24,09,13,8.20
2016,02,24,09,14,8.20
2016,02,24,09,15,8.20
2016,02,24,09,16,8.20
2016,02,24,09,17,8.20
2016,02,24,09,18,8.20
2016,02,24,09,19,8.20
2016,02,24,09,20,8.20
2016,02,24,09,21,8.20
2016,02,24,09,22,8.20
2016,02,24,09,23,8.20
2016,02,24,09,24,8.20
2016,02,24,09,25,8.20
2016,02,24,09,26,8.20
2016,02,24,09,27,8.30
2016,02,24,09,28,8.30
2016,02,24,09,29,8.30
2016,02,24,09,30,8.30
2016,02,24,09,31,8.30
2016,02,24,09,32,8.30
2016,02,24,09,33,8.30
2016,02,24,09,34,8.40
2016,02,24,09,35,8.40
2016,02,24,09,36,8.40
2016,02,24,09,37,8.40
2016,02,24,09,38,8.40
2016,02,24,09,39,8.40
2016,02,24,09,40,8.50
2016,02,24,09,41,8.50
2016,02,24,09,42,8.50
2016,02,24,09,43,8.60
2016,02,24,09,44,8.60
2016,02,24,09,45,8.60
2016,02,24,09,46,8.60
2016,02,24,09,47,8.60
2016,02,24,09,48,8.60
2016,02,24,09,49,8.60
2016,02,24,09,50,8.70
2016,02,24,09,51,8.70
2016,02,24,09,52,8.70
2016,02,24,09,53,8.70
2016,02,24,09,54,8.70
2016,02,24,09,55,8.70
2016,02,24,09,56,8.70
2016,02,24,09,57,8.80
2016,02,24,09,58,8.80
2016,02,24,09,59,8.80
2016,02,24,10,00,8.80
2016,02,24,10,01,8.90
2016,02,24,10,02,8.90
2016,02,24,10,03,9.00
2016,02,24,10,04,9.00
2016,02,24,10,05,9.10
2016,02,24,10,06,9.10
2016,02,24,10,07,9.20
2016,02,24,10,08,9.30
2016,02,24,10,09,9.30
2016,02,24,10,10,9.40
2016,02,24,10,11,9.40
2016,02,24,10,12,9.40
2016,02,24,10,13,9.50
2016,02,24,10,14,9.50
2016,02,24,10,15,9.60
2016,02,24,10,16,9.60
2016,02,24,10,17,9.60
2016,02,24,10,18,9.70
2016,02,24,10,19,9.70
2016,02,24,10,20,9.80
2016,02,24,10,21,9.80
2016,02,24,10,22,9.90
2016,02,24,10,23,9.90
2016,02,24,10,24,9.90
2016,02,24,10,25,10.00
2016,02,24,10,26,10.00
2016,02,24,10,27,10.10
2016,02,24,10,28,10.00
2016,02,24,10,29,10.10
2016,02,24,10,30,10.10
2016,02,24,10,31,10.10
2016,02,24,10,32,10.10
2016,02,24,10,33,10.10
2016,02,24,10,34,10.10
2016,02,24,10,35,10.10
2016,02,24,10,36,10.00
2016,02,24,10,37,10.00
2016,02,24,10,38,10.00
2016,02,24,10,39,10.00
2016,02,24,10,40,10.00
2016,02,24,10,41,10.00
2016,02,24,10,42,10.00
2016,02,24,10,43,10.00
2016,02,24,10,44,10.00
2016,02,24,10,45,10.10
2016,02,24,10,46,10.10
2016,02,24,10,47,10.10
2016,02,24,10,48,10.10
2016,02,24,10,49,10.20
2016,02,24,10,50,10.20
2016,02,24,10,51,10.20
2016,02,24,10,52,10.20
2016,02,24,10,53,10.20
2016,02,24,10,54,10.20
2016,02,24,10,55,10.20
2016,02,24,10,56,10.20
2016,02,24,10,57,10.10
2016,02,24,10,58,10.10
2016,02,24,10,59,10.10
2016,02,24,11,00,10.20
2016,02,24,11,01,10.20
2016,02,24,11,02,10.20
2016,02,24,11,03,10.20
2016,02,24,11,04,10.20
2016,02,24,11,05,10.20
2016,02,24,11,06,10.20
2016,02,24,11,07,10.20
2016,02,24,11,08,10.20
2016,02,24,11,09,10.20
2016,02,24,11,10,10.20
2016,02,24,11,11,10.30
2016,02,24,11,12,10.30
2016,02,24,11,13,10.30
2016,02,24,11,14,10.30
2016,02,24,11,15,10.30
2016,02,24,11,16,10.30
2016,02,24,11,17,10.30
2016,02,24,11,18,10.30
2016,02,24,11,19,10.30
2016,02,24,11,20,10.30
2016,02,24,11,21,10.30
2016,02,24,11,22,10.30
2016,02,24,11,23,10.30
2016,02,24,11,24,10.40
2016,02,24,11,25,10.40
2016,02,24,11,26,10.50
2016,02,24,11,27,10.60
2016,02,24,11,28,10.60
2016,02,24,11,29,10.60
2016,02,24,11,30,10.60
2016,02,24,11,31,10.60
2016,02,24,11,32,10.70
2016,02,24,11,33,10.60
2016,02,24,11,34,10.60
2016,02,24,11,35,10.60
2016,02,24,11,36,10.60
2016,02,24,11,37,10.60
2016,02,24,11,38,10.70
2016,02,24,11,39,10.70
2016,02,24,11,40,10.60
2016,02,24,11,41,10.60
2016,02,24,11,42,10.60
2016,02,24,11,43,10.60
2016,02,24,11,44,10.60
2016,02,24,11,45,10.60
2016,02,24,11,46,10.60
2016,02,24,11,47,10.60
2016,02,24,11,48,10.60
2016,02,24,11,49,10.60
2016,02,24,11,50,10.60
2016,02,24,11,51,10.60
2016,02,24,11,52,10.60
2016,02,24,11,53,10.50
2016,02,24,11,54,10.50
2016,02,24,11,55,10.50
2016,02,24,11,56,10.50
2016,02,24,11,57,10.40
2016,02,24,11,58,10.40
2016,02,24,11,59,10.40
2016,02,24,12,00,10.40
2016,02,24,12,01,10.50
2016,02,24,12,02,10.50
2016,02,24,12,03,10.60
2016,02,24,12,04,10.60
2016,02,24,12,05,10.70
2016,02,24,12,06,10.70
2016,02,24,12,07,10.70
2016,02,24,12,08,10.80
2016,02,24,12,09,10.80
2016,02,24,12,10,10.80
2016,02,24,12,11,10.80
2016,02,24,12,12,10.80
2016,02,24,12,13,10.80
2016,02,24,12,14,10.80
2016,02,24,12,15,10.80
2016,02,24,12,16,10.90
2016,02,24,12,17,10.90
2016,02,24,12,18,10.90
2016,02,24,12,19,11.00
2016,02,24,12,20,11.00
2016,02,24,12,21,11.10
2016,02,24,12,22,11.10
2016,02,24,12,23,11.10
2016,02,24,12,24,11.20
2016,02,24,12,25,11.20
2016,02,24,12,26,11.20
2016,02,24,12,27,11.20
2016,02,24,12,28,11.30
2016,02,24,12,29,11.30
2016,02,24,12,30,11.30
2016,02,24,12,31,11.30
2016,02,24,12,32,11.30
2016,02,24,12,33,11.20
2016,02,24,12,34,11.20
2016,02,24,12,35,11.20
2016,02,24,12,36,11.20
2016,02,24,12,37,11.20
2016,02,24,12,38,11.20
2016,02,24,12,39,11.20
2016,02,24,12,40,11.20
2016,02,24,12,41,11.10
2016,02,24,12,42,11.10
2016,02,24,12,43,11.00
2016,02,24,12,44,10.90
2016,02,24,12,45,10.90
2016,02,24,12,46,10.80
2016,02,24,12,47,10.80
2016,02,24,12,48,10.80
2016,02,24,12,49,10.80
2016,02,24,12,50,10.80
2016,02,24,12,51,10.90
2016,02,24,12,52,10.90
2016,02,24,12,53,10.90
2016,02,24,12,54,11.00
2016,02,24,12,55,11.00
2016,02,24,12,56,11.10
2016,02,24,12,57,11.10
2016,02,24,12,58,11.10
2016,02,24,12,59,11.10
2016,02,24,13,00,11.10
2016,02,24,13,01,11.00
2016,02,24,13,02,11.00
2016,02,24,13,03,11.00
2016,02,24,13,04,11.00
2016,02,24,13,05,11.00
2016,02,24,13,06,11.00
2016,02,24,13,07,11.10
2016,02,24,13,08,11.10
2016,02,24,13,09,11.10
2016,02,24,13,10,11.10
2016,02,24,13,11,11.20
2016,02,24,13,12,11.20
2016,02,24,13,13,11.20
2016,02,24,13,14,11.20
2016,02,24,13,15,11.30
2016,02,24,13,16,11.30
2016,02,24,13,17,11.30
2016,02,24,13,18,11.40
2016,02,24,13,19,11.40
2016,02,24,13,20,11.40
2016,02,24,13,21,11.40
2016,02,24,13,22,11.40
2016,02,24,13,23,11.50
2016,02,24,13,24,11.50
2016,02,24,13,25,11.50
2016,02,24,13,26,11.50
2016,02,24,13,27,11.50
2016,02,24,13,28,11.50
2016,02,24,13,29,11.50
2016,02,24,13,30,11.50
2016,02,24,13,31,11.50
2016,02,24,13,32,11.50
2016,02,24,13,33,11.50
2016,02,24,13,34,11.50
2016,02,24,13,35,11.50
2016,02,24,13,36,11.50
2016,02,24,13,37,11.50
2016,02,24,13,38,11.50
2016,02,24,13,39,11.40
2016,02,24,13,40,11.40
2016,02,24,13,41,11.30
2016,02,24,13,42,11.30
2016,02,24,13,43,11.30
2016,02,24,13,44,11.30
2016,02,24,13,45,11.30
2016,02,24,13,46,11.30
2016,02,24,13,47,11.30
2016,02,24,13,48,11.30
2016,02,24,13,49,11.30
2016,02,24,13,50,11.30
2016,02,24,13,51,11.30
2016,02,24,13,52,11.30
2016,02,24,13,53,11.30
2016,02,24,13,54,11.30
2016,02,24,13,55,11.30
2016,02,24,13,56,11.40
2016,02,24,13,57,11.40
2016,02,24,13,58,11.40
2016,02,24,13,59,11.40
2016,02,24,14,00,11.30
2016,02,24,14,01,11.30
2016,02,24,14,02,11.30
2016,02,24,14,03,11.30
2016,02,24,14,04,11.30
2016,02,24,14,05,11.30
2016,02,24,14,06,11.30
2016,02,24,14,07,11.30
2016,02,24,14,08,11.30
2016,02,24,14,09,11.30
2016,02,24,14,10,11.30
2016,02,24,14,11,11.40
2016,02,24,14,12,11.40
2016,02,24,14,13,11.40
2016,02,24,14,14,11.40
2016,02,24,14,15,11.40
2016,02,24,14,28,11.50
2016,02,24,14,29,11.50
2016,02,24,14,30,11.50
2016,02,24,14,31,11.50
2016,02,24,14,32,11.50
2016,02,24,14,33,11.60
2016,02,24,14,34,11.60
2016,02,24,14,35,11.60
2016,02,24,14,36,11.60
2016,02,24,14,37,11.60
2016,02,24,14,38,11.60
2016,02,24,14,39,11.60
2016,02,24,14,40,11.60
2016,02,24,14,41,11.60
2016,02,24,14,42,11.70
2016,02,24,14,43,11.70
2016,02,24,14,44,11.60
2016,02,24,14,45,11.60
2016,02,24,14,46,11.60
2016,02,24,14,47,11.60
2016,02,24,14,48,11.60
2016,02,24,14,49,11.60
2016,02,24,14,50,11.70
2016,02,24,14,51,11.70
2016,02,24,14,52,11.70
2016,02,24,14,53,11.80
2016,02,24,14,54,11.90
2016,02,24,14,55,11.90
2016,02,24,14,56,12.00
2016,02,24,14,57,12.00
2016,02,24,14,58,12.00
2016,02,24,14,59,12.10
2016,02,24,15,00,12.10
2016,02,24,15,01,12.10
2016,02,24,15,02,12.10
2016,02,24,15,03,12.00
2016,02,24,15,04,12.00
2016,02,24,15,05,12.00
2016,02,24,15,06,12.00
2016,02,24,15,07,12.00
2016,02,24,15,08,12.00
2016,02,24,15,09,11.90
2016,02,24,15,10,11.80
2016,02,24,15,11,11.80
2016,02,24,15,12,11.80
2016,02,24,15,13,11.80
2016,02,24,15,14,11.80
2016,02,24,15,15,11.70
2016,02,24,15,16,11.70
2016,02,24,15,17,11.70
2016,02,24,15,18,11.70
2016,02,24,15,19,11.70
2016,02,24,15,20,11.60
2016,02,24,15,21,11.60
2016,02,24,15,22,11.60
2016,02,24,15,23,11.60
2016,02,24,15,24,11.50
2016,02,24,15,25,11.50
2016,02,24,15,26,11.50
2016,02,24,15,27,11.60
2016,02,24,15,28,11.60
2016,02,24,15,29,11.60
2016,02,24,15,30,11.60
2016,02,24,15,31,11.70
2016,02,24,15,32,11.70
2016,02,24,15,33,11.70
2016,02,24,15,34,11.70
2016,02,24,15,35,11.70
2016,02,24,15,36,11.70
2016,02,24,15,37,11.70
2016,02,24,15,38,11.70
2016,02,24,15,39,11.70
2016,02,24,15,40,11.70
2016,02,24,15,41,11.70
2016,02,24,15,42,11.70
2016,02,24,15,43,11.70
2016,02,24,15,44,11.70
2016,02,24,15,45,11.80
2016,02,24,15,46,11.80
2016,02,24,15,47,11.80
2016,02,24,15,48,11.90
2016,02,24,15,49,11.90
2016,02,24,15,50,11.90
2016,02,24,15,51,11.90
2016,02,24,15,52,12.00
2016,02,24,15,53,12.00
2016,02,24,15,54,12.10
2016,02,24,15,55,12.10
2016,02,24,15,56,12.10
2016,02,24,15,57,12.20
2016,02,24,15,58,12.20
2016,02,24,15,59,12.30
2016,02,24,16,00,12.30
2016,02,24,16,01,12.40
2016,02,24,16,02,12.40
2016,02,24,16,03,12.40
2016,02,24,16,04,12.40
2016,02,24,16,05,12.40
2016,02,24,16,06,12.40
2016,02,24,16,07,12.40
2016,02,24,16,08,12.40
2016,02,24,16,09,12.40
2016,02,24,16,10,12.40
2016,02,24,16,11,12.50
2016,02,24,16,12,12.50
2016,02,24,16,13,12.50
2016,02,24,16,14,12.60
2016,02,24,16,15,12.50
2016,02,24,16,16,12.60
2016,02,24,16,17,12.50
2016,02,24,16,18,12.50
2016,02,24,16,19,12.60
2016,02,24,16,20,12.60
2016,02,24,16,21,12.60
2016,02,24,16,22,12.60
2016,02,24,16,23,12.60
2016,02,24,16,24,12.70
2016,02,24,16,25,12.70
2016,02,24,16,26,12.70
2016,02,24,16,27,12.70
2016,02,24,16,28,12.70
2016,02,24,16,29,12.70
2016,02,24,16,30,12.70
2016,02,24,16,31,12.70
2016,02,24,16,32,12.70
2016,02,24,16,33,12.70
2016,02,24,16,34,12.70
2016,02,24,16,35,12.60
2016,02,24,16,36,12.60
2016,02,24,16,37,12.50
2016,02,24,16,38,12.50
2016,02,24,16,39,12.40
2016,02,24,16,40,12.40
2016,02,24,16,41,12.40
2016,02,24,16,42,12.30
2016,02,24,16,43,12.30
2016,02,24,16,44,12.30
2016,02,24,16,45,12.30
2016,02,24,16,46,12.20
2016,02,24,16,47,12.20
2016,02,24,16,48,12.10
2016,02,24,16,49,12.10
2016,02,24,16,50,12.00
2016,02,24,16,51,11.90
2016,02,24,16,52,11.90
2016,02,24,16,53,11.80
2016,02,24,16,54,11.80
2016,02,24,16,55,11.70
2016,02,24,16,56,11.70
2016,02,24,16,57,11.60
2016,02,24,16,58,11.60
2016,02,24,16,59,11.50
2016,02,24,17,00,11.50
2016,02,24,17,01,11.40
2016,02,24,17,02,11.30
2016,02,24,17,03,11.30
2016,02,24,17,04,11.20
2016,02,24,17,05,11.20
2016,02,24,17,06,11.10
2016,02,24,17,07,11.10
2016,02,24,17,08,11.00
2016,02,24,17,09,10.90
2016,02,24,17,10,10.90
2016,02,24,17,11,10.80
2016,02,24,17,12,10.80
2016,02,24,17,13,10.70
2016,02,24,17,14,10.70
2016,02,24,17,15,10.60
2016,02,24,17,16,10.50
2016,02,24,17,17,10.50
2016,02,24,17,18,10.40
2016,02,24,17,19,10.40
2016,02,24,17,20,10.30
2016,02,24,17,21,10.30
2016,02,24,17,22,10.20
2016,02,24,17,23,10.20
2016,02,24,17,24,10.20
2016,02,24,17,25,10.20
2016,02,24,17,26,10.10
2016,02,24,17,27,10.10
2016,02,24,17,28,10.10
2016,02,24,17,29,10.10
2016,02,24,17,30,10.00
2016,02,24,17,31,10.00
2016,02,24,17,32,10.00
2016,02,24,17,33,10.00
2016,02,24,17,34,9.90
2016,02,24,17,35,9.90
2016,02,24,17,36,9.90
2016,02,24,17,37,9.90
2016,02,24,17,38,9.90
2016,02,24,17,39,9.90
2016,02,24,17,40,9.90
2016,02,24,17,41,9.90
2016,02,24,17,42,9.90
2016,02,24,17,43,9.80
2016,02,24,17,44,9.80
2016,02,24,17,45,9.80
2016,02,24,17,46,9.80
2016,02,24,17,47,9.80
2016,02,24,17,48,9.70
2016,02,24,17,49,9.70
2016,02,24,17,50,9.70
2016,02,24,17,51,9.70
2016,02,24,17,52,9.70
2016,02,24,17,53,9.60
2016,02,24,17,54,9.60
2016,02,24,17,55,9.60
2016,02,24,17,56,9.60
2016,02,24,17,57,9.60
2016,02,24,17,58,9.60
2016,02,24,17,59,9.60
2016,02,24,18,00,9.60
2016,02,24,18,01,9.60
2016,02,24,18,02,9.60
2016,02,24,18,03,9.60
2016,02,24,18,04,9.60
2016,02,24,18,05,9.60
2016,02,24,18,06,9.60
2016,02,24,18,07,9.60
2016,02,24,18,08,9.60
2016,02,24,18,09,9.60
2016,02,24,18,10,9.50
2016,02,24,18,11,9.50
2016,02,24,18,12,9.50
2016,02,24,18,13,9.50
2016,02,24,18,14,9.50
2016,02,24,18,15,9.50
2016,02,24,18,16,9.50
2016,02,24,18,17,9.50
2016,02,24,18,18,9.50
2016,02,24,18,19,9.50
2016,02,24,18,20,9.50
2016,02,24,18,21,9.40
2016,02,24,18,22,9.40
2016,02,24,18,23,9.40
2016,02,24,18,24,9.40
2016,02,24,18,25,9.40
2016,02,24,18,26,9.40
2016,02,24,18,27,9.40
2016,02,24,18,28,9.40
2016,02,24,18,29,9.30
2016,02,24,18,30,9.30
2016,02,24,18,31,9.30
2016,02,24,18,32,9.30
2016,02,24,18,33,9.30
2016,02,24,18,34,9.30
2016,02,24,18,35,9.30
2016,02,24,18,36,9.30
2016,02,24,18,37,9.30
2016,02,24,18,38,9.30
2016,02,24,18,39,9.30
2016,02,24,18,40,9.20
2016,02,24,18,41,9.20
2016,02,24,18,42,9.20
2016,02,24,18,43,9.20
2016,02,24,18,44,9.20
2016,02,24,18,45,9.20
2016,02,24,18,46,9.20
2016,02,24,18,47,9.20
2016,02,24,18,48,9.20
2016,02,24,18,49,9.10
2016,02,24,18,50,9.10
2016,02,24,18,51,9.10
2016,02,24,18,52,9.10
2016,02,24,18,53,9.10
2016,02,24,18,54,9.10
2016,02,24,18,55,9.00
2016,02,24,18,56,9.00
2016,02,24,18,57,9.00
2016,02,24,18,58,9.00
2016,02,24,18,59,8.90
2016,02,24,19,00,8.90
2016,02,24,19,01,8.90
2016,02,24,19,02,8.90
2016,02,24,19,03,8.80
2016,02,24,19,04,8.80
2016,02,24,19,05,8.80
2016,02,24,19,06,8.80
2016,02,24,19,07,8.80
2016,02,24,19,08,8.80
2016,02,24,19,09,8.70
2016,02,24,19,10,8.70
2016,02,24,19,11,8.70
2016,02,24,19,12,8.70
2016,02,24,19,13,8.60
2016,02,24,19,14,8.60
2016,02,24,19,15,8.60
2016,02,24,19,16,8.60
2016,02,24,19,17,8.50
2016,02,24,19,18,8.50
2016,02,24,19,19,8.50
2016,02,24,19,20,8.40
2016,02,24,19,21,8.40
2016,02,24,19,22,8.40
2016,02,24,19,23,8.30
2016,02,24,19,24,8.30
2016,02,24,19,25,8.30
2016,02,24,19,26,8.30
2016,02,24,19,27,8.30
2016,02,24,19,28,8.20
2016,02,24,19,29,8.20
2016,02,24,19,30,8.20
2016,02,24,19,31,8.10
2016,02,24,19,32,8.10
2016,02,24,19,33,8.10
2016,02,24,19,34,8.10
2016,02,24,19,35,8.00
2016,02,24,19,36,8.00
2016,02,24,19,37,7.90
2016,02,24,19,38,7.90
2016,02,24,19,39,7.90
2016,02,24,19,40,7.90
2016,02,24,19,41,7.80
2016,02,24,19,42,7.80
2016,02,24,19,43,7.80
2016,02,24,19,44,7.80
2016,02,24,19,45,7.80
2016,02,24,19,46,7.70
2016,02,24,19,47,7.70
2016,02,24,19,48,7.70
2016,02,24,19,49,7.70
2016,02,24,19,50,7.70
2016,02,24,19,51,7.60
2016,02,24,19,52,7.60
2016,02,24,19,53,7.60
2016,02,24,19,54,7.60
2016,02,24,19,55,7.60
2016,02,24,19,56,7.60
2016,02,24,19,57,7.60
2016,02,24,19,58,7.60
2016,02,24,19,59,7.60
2016,02,24,20,00,7.50
2016,02,24,20,01,7.50
2016,02,24,20,02,7.40
2016,02,24,20,03,7.40
2016,02,24,20,04,7.40
2016,02,24,20,05,7.30
2016,02,24,20,06,7.30
2016,02,24,20,07,7.30
2016,02,24,20,08,7.20
2016,02,24,20,09,7.20
2016,02,24,20,10,7.20
2016,02,24,20,11,7.10
2016,02,24,20,12,7.10
2016,02,24,20,13,7.10
2016,02,24,20,14,7.10
2016,02,24,20,15,7.00
2016,02,24,20,16,7.00
2016,02,24,20,17,7.00
2016,02,24,20,18,6.90
2016,02,24,20,19,6.90
2016,02,24,20,20,6.90
2016,02,24,20,21,6.90
2016,02,24,20,22,6.90
2016,02,24,20,23,6.80
2016,02,24,20,24,6.80
2016,02,24,20,25,6.80
2016,02,24,20,26,6.80
2016,02,24,20,27,6.80
2016,02,24,20,28,6.70
2016,02,24,20,29,6.70
2016,02,24,20,30,6.70
2016,02,24,20,31,6.70
2016,02,24,20,32,6.70
2016,02,24,20,33,6.70
2016,02,24,20,34,6.70
2016,02,24,20,35,6.60
2016,02,24,20,36,6.60
2016,02,24,20,37,6.60
2016,02,24,20,38,6.60
2016,02,24,20,39,6.60
2016,02,24,20,40,6.60
2016,02,24,20,41,6.60
2016,02,24,20,42,6.60
2016,02,24,20,43,6.60
2016,02,24,20,44,6.60
2016,02,24,20,45,6.60
2016,02,24,20,46,6.60
2016,02,24,20,47,6.60